This is the latest recevied weather packets stored in our database for station/object SQ2CET-13. If no packets are shown the sender has not sent any weather packets the latest 10 day(s).
| Time | Temp. | Humidity | Pressure | Rain* | Wind** | Luminosity | Snow |
|---|---|---|---|---|---|---|---|
| 1777632676 | 21.67° C | 35% | 1028 hPa | 0 mm | - | 598 W/m² | - |
| 1777627895 | 19.44° C | 44% | 1028.3 hPa | 0 mm | - | 713 W/m² | - |
| 1777626019 | 19.44° C | 44% | 1028.5 hPa | 0 mm | - | 711 W/m² | - |
| 1777624228 | 17.78° C | 46% | 1028.8 hPa | 0 mm | - | 669 W/m² | - |
| 1777621859 | 16.11° C | 49% | 1029 hPa | 0 mm | - | 632 W/m² | - |
| 1777620069 | 14.44° C | 54% | 1029 hPa | 0 mm | - | 539 W/m² | - |
| 1777614647 | 10.56° C | 67% | 1028.8 hPa | 0 mm | - | 236 W/m² | - |
| 1777613475 | 9.44° C | 71% | 1028.8 hPa | 0 mm | - | 188 W/m² | - |
| 1777612857 | 8.33° C | 74% | 1028.7 hPa | 0 mm | - | 172 W/m² | - |
| 1777612259 | 7.78° C | 76% | 1028.8 hPa | 0 mm | - | 158 W/m² | - |
| 1777603229 | 3.89° C | 89% | 1028.9 hPa | 0 mm | - | 0 W/m² | - |
| 1777602076 | 3.89° C | 89% | 1028.9 hPa | 0 mm | - | 0 W/m² | - |
| 1777599644 | 3.89° C | 88% | 1028.7 hPa | 0 mm | - | 0 W/m² | - |
| 1777599068 | 3.89° C | 88% | 1028.8 hPa | 0 mm | - | 0 W/m² | - |
| 1777598428 | 3.89° C | 87% | 1028.8 hPa | 0 mm | - | 0 W/m² | - |
| 1777596637 | 4.44° C | 86% | 1028.5 hPa | 0 mm | - | 0 W/m² | - |
| 1777593052 | 5° C | 83% | 1028.5 hPa | 0 mm | - | 0 W/m² | - |
| 1777590044 | 5° C | 81% | 1028.6 hPa | 0 mm | - | 0 W/m² | - |
| 1777588829 | 5.56° C | 81% | 1028.7 hPa | 0 mm | - | 0 W/m² | - |
| 1777588252 | 5.56° C | 79% | 1028.8 hPa | 0 mm | - | 0 W/m² | - |
| 1777587056 | 6.67° C | 75% | 1028.6 hPa | 0 mm | - | 0 W/m² | - |
| 1777583452 | 6.11° C | 74% | 1028.6 hPa | 0 mm | - | 0 W/m² | - |
| 1777582876 | 6.11° C | 74% | 1028.6 hPa | 0 mm | - | 0 W/m² | - |
| 1777578644 | 8.89° C | 67% | 1028.6 hPa | 0 mm | - | 0 W/m² | - |
| 1777575061 | 10° C | 63% | 1028.6 hPa | 0 mm | - | 0 W/m² | - |
* Rain latest hour (hover to see other rain measurements)
** Current wind speed in m/s (hover to see current wind gust speed)